Starlink 32168

operational
NORAD ID: 60335 Int'l Des: 2024-136 Owner: SPXS Country: US Constellation: starlink
LEOCIRCULAR

Über Starlink 32168

Beschreibung wird geladen...

Live-Position

3D-Globus wird geladen...

Nächste Überflüge

Höhenverlauf

Altitude vs Time

uPlot chart will show altitude changes over time

Zweizeiliger Elementsatz

1 60335U 24136G 25306.33220422 .00001477 00000-0 62002-4 0 9990
2 60335 53.1597 307.3666 0001357 95.4118 264.7038 15.30188114 70160
Epoch: 2. Nov. 2025 • Age: 37 hours

Aktueller Status

Höhe 475.3 km
Geschwindigkeit 7.63 km/s
Subsatellitenpunkt 5.36°N, 121.16°E
Startdatum 2. Aug. 2024
Alter 1.2 years
Typ internet

Technische Details

Klassifizierung Payload
Masse 730.00 kg
Trockenmasse 700.00 kg
Gesamtmasse 730.00 kg
Länge 0.30 m
Durchmesser 4.10 m
Spannweite 29.00 m
Form Box + pan
Hersteller SPXS
Bus-Typ Starlink V2M
Phasenstatus In Orbit
Besitzer/Staat SPXS/US

Große Konstellationen

Loading constellations...